Weather History for KTTD - January, 2013

Change the Weather History Date:

Saturday, January 26, 2013

  Actual Average Record
Temperature  
Mean Temperature 43 °F 41 °F  
Max Temperature 47 °F 47 °F 65 °F (2003)
Min Temperature 38 °F 35 °F 6 °F (1957)
Degree Days  
Heating Degree Days 22 24  
Month to date heating degree days 732 662  
Cooling Degree Days 0 0  
Month to date cooling degree days 0 0  
Moisture  
Dew Point 38 °F    
Average Humidity 82    
Maximum Humidity 92    
Minimum Humidity 71    
Precipitation  
Precipitation 0.05 in 0.18 in - ()
Month to date precipitation 1.44 5.34  
Year to date precipitation 1.44 5.34  
Snow  
Snow 0.00 in - - ()
Month to date snowfall 0.0  
Snow Depth 0.00 in    
Sea Level Pressure  
Sea Level Pressure 30.00 in    
Wind  
Wind Speed 5 mph (SSE)    
Max Wind Speed 15 mph    
Max Gust Speed 20 mph    
Visibility 10 miles    
Events Rain    
T = Trace of Precipitation, MM = Missing Value Source: NWS Daily Summary

Daily Weather History Graph

Daily Weather History Graph

Search for Another Location

Airport or City:

Trip Planner

Search our weather history database for the weather conditions in past years. The results will help you decide how hot, cold, wet, or windy it might be!

Date:

Astronomy

Jan. 26, 2013 Rise Set
Actual Time 7:36 AM PST 5:08 PM PST
Civil Twilight 7:04 AM PST 5:40 PM PST
Nautical Twilight 6:28 AM PST 6:16 PM PST
Astronomical Twilight 5:54 AM PST 6:51 PM PST
Moon 5:11 PM PST (1/26) 6:56 AM PST (1/26)
Length of Visible Light 10h 35m
Length of Day
9h 31m
Full, 100% of the Moon is Illuminated
Jan 26
Full
Jan 26
Full
Feb 3
Last Quarter
Feb 9
New
Feb 17
First Quarter

Hourly Weather History & Observations

Time (PST) Temp. Windchill Dew Point Humidity Pressure Visibility Wind Dir Wind Speed Gust Speed Precip Events Conditions
12:34 AM 39.2 °F 35.0 °F 37.4 °F 93% 29.97 in 9.0 mi East 5.8 mph - N/A   Overcast
12:53 AM 39.9 °F 35.8 °F 37.9 °F 93% 29.97 in 9.0 mi ENE 5.8 mph - N/A   Overcast
1:53 AM 39.9 °F 37.8 °F 37.0 °F 89% 29.97 in 10.0 mi ENE 3.5 mph - N/A   Mostly Cloudy
2:16 AM 39.2 °F 35.0 °F 37.4 °F 93% 29.97 in 10.0 mi East 5.8 mph - N/A   Overcast
2:53 AM 39.9 °F 34.5 °F 37.0 °F 89% 29.96 in 10.0 mi East 8.1 mph - N/A   Overcast
3:53 AM 39.9 °F 36.7 °F 37.0 °F 89% 29.96 in 10.0 mi NNE 4.6 mph - 0.01 in   Overcast
4:41 AM 39.2 °F - 37.4 °F 93% 29.96 in 10.0 mi Calm Calm - 0.00 in   Overcast
4:53 AM 39.9 °F 35.8 °F 37.0 °F 89% 29.96 in 10.0 mi ESE 5.8 mph - 0.00 in   Overcast
5:05 AM 39.2 °F 37.0 °F 37.4 °F 93% 29.96 in 10.0 mi ESE 3.5 mph - N/A   Overcast
5:53 AM 39.0 °F 36.8 °F 37.0 °F 93% 29.96 in 10.0 mi ENE 3.5 mph - 0.01 in   Overcast
6:53 AM 39.9 °F - 37.0 °F 89% 29.97 in 10.0 mi Calm Calm - N/A   Overcast
7:45 AM 42.8 °F - 39.2 °F 87% 29.98 in 10.0 mi Calm Calm - N/A   Overcast
7:53 AM 42.1 °F - 39.0 °F 89% 29.98 in 10.0 mi Calm Calm - N/A   Overcast
8:53 AM 43.0 °F - 39.9 °F 89% 29.99 in 10.0 mi Calm Calm - N/A   Overcast
9:53 AM 45.0 °F 40.1 °F 39.0 °F 80% 30.00 in 10.0 mi SSW 9.2 mph - 0.01 in Rain Light Rain
10:53 AM 44.1 °F 38.6 °F 37.9 °F 79% 30.01 in 9.0 mi SW 10.4 mph - 0.02 in Rain Light Rain
11:53 AM 44.1 °F 37.7 °F 39.0 °F 82% 30.00 in 10.0 mi SSW 12.7 mph - 0.00 in   Overcast
12:25 PM 44.6 °F 42.2 °F 39.2 °F 81% 30.00 in 10.0 mi SSW 4.6 mph - N/A   Overcast
12:53 PM 45.0 °F 41.8 °F 39.0 °F 80% 29.99 in 10.0 mi SSW 5.8 mph - N/A   Overcast
1:53 PM 46.0 °F 42.5 °F 37.9 °F 73% 29.99 in 10.0 mi SSW 6.9 mph - N/A   Overcast
2:19 PM 46.4 °F 42.4 °F 37.4 °F 71% 29.98 in 10.0 mi SSW 8.1 mph - N/A   Overcast
2:53 PM 46.0 °F 41.9 °F 39.0 °F 76% 29.99 in 10.0 mi South 8.1 mph - N/A   Overcast
3:15 PM 44.6 °F 41.4 °F 39.2 °F 81% 29.99 in 10.0 mi South 5.8 mph - N/A   Overcast
3:22 PM 46.4 °F 44.3 °F 39.2 °F 76% 29.99 in 10.0 mi SSE 4.6 mph - N/A   Overcast
3:53 PM 45.0 °F 41.2 °F 37.0 °F 74% 29.99 in 10.0 mi South 6.9 mph - N/A   Overcast
4:53 PM 44.1 °F - 37.0 °F 76% 30.00 in 10.0 mi Calm Calm - N/A   Scattered Clouds
5:53 PM 44.1 °F - 37.0 °F 76% 30.01 in 10.0 mi Calm Calm - N/A   Overcast
6:53 PM 42.1 °F 37.1 °F 37.0 °F 82% 30.03 in 10.0 mi SW 8.1 mph - N/A   Overcast
7:53 PM 42.1 °F - 37.0 °F 82% 30.05 in 10.0 mi Calm Calm - N/A   Overcast
8:53 PM 42.1 °F 40.2 °F 36.0 °F 79% 30.06 in 10.0 mi SSW 3.5 mph - N/A   Overcast
9:53 PM 42.1 °F - 36.0 °F 79% 30.07 in 10.0 mi Calm Calm - N/A   Overcast
10:53 PM 41.0 °F 38.0 °F 36.0 °F 82% 30.09 in 10.0 mi SSW 4.6 mph - 0.00 in Rain Light Rain
11:53 PM 41.0 °F - 37.0 °F 86% 30.09 in 10.0 mi Calm Calm - 0.00 in   Overcast